Regional Weather Roundup
Issued by NWS Green Bay, WI

Home | Current Version | Previous Version | Graphics & Text | Print | Product List | Glossary Off
Versions: 1 2 3 4 5 6 7 8 9 10 11 12 13 14 15 16 17 18 19 20 21 22 23 24 25 26 27 28 29 30 31 32 33 34 35 36 37 38 39 40 41 42 43 44 45 46 47 48 49 50

000
ASUS43 KGRB 020311
RWRGRB

NORTH-CENTRAL AND NORTHEAST WISCONSIN REGIONAL WEATHER ROUNDUP
NATIONAL WEATHER SERVICE GREEN BAY WI
1000 PM CDT WED JUL 01 2015

WIZ005-009-010>012-018-019-020400-
NORTH CENTRAL WISCONSIN

CITY           SKY/WX    TMP DP  RH WIND       PRES   REMARKS
IRONWOOD       CLEAR     52  48  87 CALM      30.01R
MANITOWISH WTR CLEAR     49  49  99 CALM      30.04S
ARBOR VITAE    CLEAR     52  47  82 CALM      30.05R
EAGLE RIVER    CLEAR     52  46  82 CALM      30.04S
LAND O LAKES   CLEAR     49  47  93 CALM      30.06R
RHINELANDER    CLEAR     54  47  77 CALM      30.05R
PHILLIPS       CLEAR     54  47  78 CALM      30.04R
ANTIGO         CLEAR     53  49  86 NE5       30.04R
TOMAHAWK       NOT AVBL
MERRILL        CLEAR     53  49  87 CALM      30.04R
$$

WIZ013-073-020400-
NORTHEAST WISCONSIN

CITY           SKY/WX    TMP DP  RH WIND       PRES   REMARKS
IRON MOUNTAIN  CLEAR     53  44  71 CALM      30.03R
MARINETTE      CLEAR     57  39  51 NE6       30.02S
OCONTO         CLEAR     55  51  87 CALM      30.03R
$$

WIZ017-030-035>037-045-020400-
CENTRAL WISCONSIN

CITY           SKY/WX    TMP DP  RH WIND       PRES   REMARKS
MEDFORD        CLEAR     55  50  81 CALM      30.03R
WAUSAU         CLEAR     64  45  49 N5        30.01R
MOSINEE        CLEAR     63  46  55 N3        30.02R
MARSHFIELD     CLEAR     59  50  72 CALM      30.02R
WISC RAPIDS    CLEAR     57  50  77 CALM      30.02R
STEVENS POINT  CLEAR     55  48  77 CALM      30.02R
WAUPACA        CLEAR     60  52  76 CALM      30.01S
SHAWANO        CLEAR     59  49  68 CALM      30.03R
CLINTONVILLE   CLEAR     59  50  72 E5        30.02R
$$

WIZ038-039-048-051-020400-
FOX VALLEY

CITY           SKY/WX    TMP DP  RH WIND       PRES   REMARKS
NWS GREEN BAY  CLEAR     57  51  80 SE3       30.03R
APPLETON       CLEAR     63  50  63 VRB3      30.02R
OSHKOSH        CLEAR     57  51  80 S5        30.02R
FOND DU LAC    CLEAR     57  54  89 S5        30.03R
$$

WIZ022-050-052-020400-
EAST CENTRAL WISCONSIN

CITY           SKY/WX    TMP DP  RH WIND       PRES   REMARKS
STURGEON BAY   CLEAR     54  45  71 CALM      30.06R
MANITOWOC      CLEAR     52  51  97 MISG      30.04R
SHEBOYGAN      CLEAR     52  50  93 CALM      30.04R
$$

LMZ563-521-522-541>543-020400-
LAKESHORE

STATION/POSITION TIME  TEMP    WIND        PRES    VSBY  WAVE
                       AIR SEA DIR/SP/G                  HT/PER
                 (UTC) (F)     (DEG/KT/KT) (MB)    (MI)  (FT/S)
SHEBOYGAN LKSHOR 0300   55        CALM     1017.5R
KEWAUNEE LKSHORE 0200   56      CALM  /  2 1015.9R
ALGOMA MARINA    0210             CALM       N/A
NORTHPORT PIER   0200   59      40/  6/  8 1016.3R
N MID LAKE BUOY  0250   50 42  350/  8/  8 1017.0R         1/ 3
S GREEN BAY BUOY 0300   61 68  120/ 10/ 14 1018.2
SISTER BAY LKSHO 0214   56        CALM       N/A
CHAMBERS ISLAND  0200   62      40/ 11/ 15 1016.3R
MENOMINEE LKSHOR 0200   63      50/ 12/ 16 1016.9R
$$



USA.gov is the U.S. government's official web portal to all federal, state and local government web resources and services.